Weather in Scalea

Italy     39°48′42″N   15°47′22″E
temp.,
°C
wind,
m/s
gust,
m/s
humid.,
%
clouds,
%
prec.,
mm/h
press.,
hPa
HPBL,
m
11 may, tue
tue1123:00+20ese33625 0.0 101619
02:00+19e336186 0.0 101515
05:00+19e44605 0.0 101421
08:00+20sse22610 0.0 101420
11:00+20sw11595 0.0 101489
14:00+20nnw11515 0.0 1014127
17:00+20wnw22545 0.0 1013211
20:00+19ese11795 0.0 101316
12 may, wed
wed1223:00+18sse44800 0.0 1014116
02:00+18sw568920 1.6 1012468
05:00+17w558242 1.6 1012662
08:00+18wnw35681 2.3 1013965
11:00+17wnw55743 0.8 1014523
14:00+17wnw66680 1.1 1014855
17:00+17w566720 0.4 10141227
20:00+17wnw57605 0.6 10141351
13 may, thu
thu1323:00+17wnw576123 0.0 10141375
02:00+17w346640 0.3 10131140
05:00+17ssw346936 0.3 1012937
08:00+17sw457435 1.4 1012665
11:00+17wsw457249 1.8 1012704
14:00+17w56736 3.9 1012869
17:00+18w566485 0.8 10121167
20:00+17w456915 1.0 1012850
14 may, fri
fri1423:00+17wsw23693 0.3 1013544
02:00+17ssw2265100 0.4 1012486
05:00+17s346859 0.3 1012455
08:00+17s34718 0.8 1013549
11:00+18ssw45745 0.6 1015578
14:00+18wsw33705 0.8 1015585
17:00+17n006792 0.0 1015373
20:00+17se3362100 0.0 1014469
15 may, sat
sat1523:00+18e2256100 0.0 1014237
02:00+18ene2150100 0.0 101289
05:00+17nne5558100 0.2 1010254
08:00+13se5594100 13.8 1011344
11:00+15s8108599 3.5 1011894
14:00+17w10116889 6.8 10111596
17:00+17wnw11127366 3.5 10111351
20:00+17wnw9106794 5.1 10111420